Tracking 30260 objects as of 15-Feb-2025
HD Live streaming from Space Station
objects crossing your sky now

STARLINK-32714

Track STARLINK-32714 now!
10-day predictions
STARLINK-32714 is classified as:


NORAD ID: 62499
Int'l Code: 2025-003N
Perigee: 449.9 km
Apogee: 452.5 km
Inclination: 43.0 °
Period: 93.5 minutes
Semi major axis: 6822 km
RCS: Unknown
Launch date: January 6, 2025
Source: United States (US)
Launch site: AIR FORCE EASTERN TEST RANGE (AFETR)
Your satellite tracking list
Your tracking list is empty




NASA's NSSDC Master Catalog

Two Line Element Set (TLE):
1 62499U 25003N   25045.79042880  .00001315  00000-0  38746-4 0  9996
2 62499  43.0028 322.5448 0001916 284.7473  75.3171 15.40704637  7311
Source of the keplerian elements: AFSPC